{"data":{"norad_id":53175,"epoch":"2026-09-20T00:08:01.010400Z","epoch_age_seconds":114939,"freshness":"FRESH","line1":"1 53175U 22083AV  26263.00556725  .00001485  00000+0  55090-4 0  9995","line2":"2 53175  53.1610  11.6897 0000917  95.0979 265.0128 15.34389341230681","mean_motion":15.34389341,"eccentricity":9.17e-5,"inclination_deg":53.161,"raan_deg":11.6897,"arg_perigee_deg":95.0979,"mean_anomaly_deg":265.0128,"bstar":5.509e-5,"rev_number":23068,"period_min":93.848410017077,"perigee_km":462.10761322961,"apogee_km":463.36222913996,"semimajor_km":6840.8719211848,"source":"CELESTRAK","updated_at":"2026-09-20T09:00:40.186713Z"}}